Wind_Speed
90 93 96 98 100 105 108 109 107 99 94 101 108 115 123 130 134 139 140 140 141 142 140 138 136 133 129 130 129 126 121 119 121 122 123 123 127 134
95 96 98 102 106 109 108 108 113 116 111 111 118 123 128 132 137 139 138 135 132 129 126 122 117 114 112 110 109 108 107 103 102 101 102 104 103 110
98 101 106 108 109 107 109 113 118 126 130 121 126 130 130 130 128 127 123 114 109 109 110 107 104 102 100 98 98 99 97 93 92 92 92 93 94 96
103 107 108 108 108 111 116 121 127 132 136 134 126 125 121 114 110 104 100 100 99 98 96 94 93 89 87 88 89 90 90 87 83 82 81 85 87 88
107 107 106 111 113 119 125 130 133 133 133 129 119 112 105 103 97 96 93 96 95 90 84 86 82 82 83 84 85 86 87 85 80 76 77 77 80 80
106 110 112 117 124 129 131 131 129 127 121 113 108 102 98 96 93 87 85 88 86 81 78 79 76 74 74 73 74 77 78 77 75 70 71 72 75 75
110 116 122 128 131 133 132 127 120 112 110 104 98 95 92 89 85 83 77 78 81 70 68 75 64 66 65 65 66 68 70 68 67 66 67 68 69 70
117 123 129 132 133 130 124 115 111 109 101 94 90 86 85 80 78 75 70 69 71 60 65 66 57 60 58 55 56 60 60 60 60 60 60 63 67 66
126 130 133 132 127 116 109 107 105 104 98 89 81 79 75 73 69 69 62 59 60 57 57 52 47 50 50 48 48 50 51 51 53 55 58 60 62 64
134 135 131 121 113 110 102 98 97 95 89 82 75 69 66 65 60 59 55 52 50 49 48 44 43 41 40 41 41 42 44 45 48 53 57 59 61 61
138 133 121 113 107 101 94 88 85 83 79 73 66 62 59 55 52 52 47 44 44 41 39 37 35 34 33 32 34 36 38 39 43 49 54 58 58 59
124 119 114 106 100 91 85 79 75 74 71 68 61 55 50 47 44 41 42 39 37 33 31 28 27 26 27 26 26 28 31 35 39 44 48 51 52 54
113 107 102 95 88 83 78 73 68 66 63 58 54 48 43 40 37 36 34 32 29 27 24 21 21 20 20 20 18 21 25 31 36 40 43 47 49 53
104 98 89 84 80 76 71 67 63 57 54 50 45 41 37 34 32 31 28 26 23 21 19 17 16 15 14 14 16 17 18 23 28 33 38 42 45 48
96 89 83 78 74 69 64 60 55 51 46 41 38 36 32 30 28 26 25 22 18 16 16 15 13 11 9 9 11 15 17 20 25 30 35 38 41 43
87 83 78 72 67 63 57 53 49 43 39 36 32 30 28 26 23 21 19 17 17 14 12 11 10 9 8 7 9 11 18 21 25 30 33 35 38 40
79 75 70 66 61 55 51 47 41 38 35 31 28 26 24 22 20 18 16 15 13 13 11 9 8 7 6 6 9 12 15 23 24 25 26 30 32 34
73 68 64 59 55 49 45 40 36 33 31 27 25 23 21 20 17 15 15 14 11 9 8 7 6 6 6 5 8 11 15 18 22 25 26 27 29 32
66 62 58 53 48 43 38 34 32 31 27 25 23 22 20 18 16 14 13 12 8 7 5 5 5 4 5 7 8 10 13 17 20 23 26 27 28 31
60 56 51 46 42 38 35 32 30 29 26 25 24 21 19 17 16 15 13 11 8 5 6 3 4 5 7 7 9 12 13 14 17 22 25 27 30 32
53 49 44 39 35 33 31 29 28 27 26 24 21 20 19 17 16 15 13 12 10 8 5 4 4 5 8 10 11 11 12 14 16 18 24 29 31 34
47 42 37 34 31 29 27 27 27 26 25 24 22 21 20 19 18 16 14 11 11 12 11 8 7 7 10 13 14 15 15 15 16 18 22 25 31 36
39 35 32 29 28 27 27 26 26 26 25 25 24 22 23 23 21 18 16 14 12 11 11 11 11 11 10 13 16 17 18 18 19 21 22 25 29 31
Wind_Direction
296 296 294 292 292 294 294 293 292 289 289 289 289 290 289 289 289 289 289 288 285 283 280 278 277 275 274 273 272 269 267 265 263 261 261 260 259 260
297 295 294 295 295 295 295 294 294 295 294 292 292 291 290 290 290 288 286 284 283 282 280 277 276 275 274 271 270 269 267 265 262 260 258 257 255 254
296 296 295 296 296 295 295 296 296 296 296 295 295 295 293 291 289 285 284 283 281 280 278 277 276 275 274 273 271 270 268 266 263 260 257 256 253 249
298 298 297 296 296 296 297 297 297 297 298 299 298 296 293 292 291 290 289 287 283 280 280 280 279 278 275 272 268 265 264 261 257 254 252 250 249 248
298 298 297 297 298 298 297 298 299 300 301 299 297 297 297 295 294 293 290 286 285 284 283 280 278 274 270 267 265 263 261 260 258 252 248 245 245 244
298 300 300 300 299 299 299 302 304 304 301 299 300 301 299 296 294 292 289 288 287 286 284 281 278 275 271 268 265 262 260 258 255 249 244 241 240 240
302 303 301 301 301 303 305 306 305 302 301 301 302 301 299 295 295 293 292 290 288 290 285 280 283 277 274 270 265 262 259 255 249 245 240 237 235 235
303 303 303 304 307 307 308 307 305 303 302 304 303 299 298 297 296 294 294 291 291 290 285 285 285 279 275 270 266 263 258 253 246 241 236 233 231 230
306 306 308 309 309 309 309 307 306 304 305 303 302 300 300 298 298 297 296 293 290 289 286 287 282 278 275 271 266 261 255 249 242 235 231 229 226 225
309 310 311 310 310 310 309 308 306 305 304 305 306 304 301 300 300 299 297 293 290 290 289 288 283 278 275 270 263 257 252 244 236 229 224 222 221 220
311 311 312 311 311 310 309 308 306 305 305 307 306 305 304 303 301 298 296 295 293 294 292 290 285 279 272 266 261 254 247 238 229 223 222 221 220 219
313 312 311 312 312 311 310 309 308 308 308 307 308 308 305 303 302 299 297 297 298 298 295 292 286 279 271 260 255 249 239 228 223 220 219 219 219 218
312 310 313 313 312 311 310 311 310 308 309 309 309 309 307 305 303 301 301 302 301 300 297 291 280 273 268 259 245 239 234 226 220 218 218 218 217 216
312 313 314 314 313 312 313 312 312 311 310 310 310 309 308 308 304 304 305 306 305 302 298 291 282 276 264 256 241 227 225 224 223 221 218 217 215 215
314 315 316 314 314 315 315 314 314 312 312 311 310 310 311 309 308 308 310 309 307 307 302 293 284 276 263 239 237 224 210 214 215 215 216 216 215 215
316 317 316 316 317 316 316 315 314 315 315 313 313 312 310 309 309 308 308 309 309 308 308 301 291 276 261 239 215 214 200 195 205 212 213 213 212 213
316 317 317 318 318 318 318 317 318 318 318 317 314 311 309 308 310 312 315 316 316 309 306 300 294 278 253 222 203 195 202 197 198 202 205 209 209 208
318 319 319 319 320 320 320 321 321 320 318 314 312 311 310 313 318 325 328 324 318 311 294 286 276 267 242 215 207 199 195 199 200 199 200 203 205 205
321 321 321 321 322 323 323 324 322 319 317 317 317 316 317 322 322 327 324 318 317 320 306 266 249 234 230 213 196 194 198 197 200 200 198 198 199 199
322 322 322 323 325 326 325 324 320 318 320 321 320 318 318 319 316 316 315 316 313 329 333 287 208 201 193 204 201 193 189 193 199 199 192 188 189 191
323 323 325 328 328 326 326 325 325 326 326 324 322 320 317 314 311 307 300 299 298 288 271 287 234 194 184 180 181 188 187 185 184 192 193 186 185 186
324 327 330 330 329 328 328 328 328 328 327 327 325 320 315 310 306 301 296 287 273 271 266 248 234 210 191 184 184 183 184 187 187 183 183 190 193 189
328 332 332 332 332 331 330 331 332 334 337 333 324 320 314 306 299 291 285 282 275 260 246 244 234 220 211 196 180 178 181 188 191 189 188 187 185 187
Height
10510 10500 10490 10478 10465 10453 10441 10427 10417 10431 10442 10425 10406 10390 10365 10344 10329 10311 10305 10293 10277 10262 10255 10246 10239 10236 10234 10228 10226 10226 10230 10237 10240 10249 10259 10270 10284 10290
10486 10475 10461 10450 10438 10423 10411 10398 10382 10370 10387 10388 10373 10354 10333 10316 10290 10264 10251 10237 10225 10212 10200 10194 10192 10189 10187 10186 10182 10182 10183 10193 10202 10210 10219 10228 10241 10250
10459 10448 10434 10421 10409 10396 10384 10371 10356 10333 10319 10345 10327 10306 10288 10267 10247 10222 10205 10198 10187 10170 10158 10156 10155 10151 10152 10153 10150 10148 10152 10159 10168 10176 10185 10193 10203 10214
10433 10421 10406 10394 10381 10367 10354 10341 10323 10303 10279 10272 10277 10254 10230 10210 10195 10183 10168 10151 10141 10133 10131 10126 10118 10121 10120 10115 10110 10109 10111 10119 10130 10140 10150 10158 10166 10180
10406 10394 10380 10366 10353 10337 10322 10306 10289 10268 10241 10216 10212 10198 10188 10165 10159 10143 10133 10115 10104 10104 10104 10091 10090 10086 10081 10078 10077 10077 10080 10087 10100 10110 10119 10128 10137 10149
10378 10364 10350 10334 10318 10302 10286 10267 10247 10224 10200 10180 10170 10162 10147 10133 10121 10116 10103 10082 10076 10074 10070 10057 10056 10054 10049 10050 10050 10048 10051 10061 10072 10083 10092 10101 10109 10123
10352 10336 10317 10298 10280 10261 10240 10224 10199 10179 10162 10152 10143 10128 10112 10100 10092 10079 10077 10059 10040 10053 10038 10022 10036 10025 10022 10022 10020 10021 10024 10033 10044 10057 10067 10077 10086 10100
10326 10305 10282 10263 10241 10222 10202 10180 10154 10137 10130 10125 10115 10100 10083 10074 10063 10053 10049 10036 10018 10030 10011 10005 10009 9999 10000 10000 10000 9999 10004 10010 10020 10032 10045 10055 10064 10077
10286 10266 10248 10224 10201 10185 10170 10149 10126 10104 10096 10094 10089 10073 10061 10049 10039 10026 10024 10017 10005 9999 9991 9989 9988 9982 9979 9979 9978 9980 9984 9991 10001 10011 10023 10034 10045 10057
10246 10225 10205 10188 10169 10151 10141 10124 10101 10082 10071 10066 10060 10051 10039 10025 10018 10009 10002 9995 9987 9981 9976 9972 9967 9965 9963 9963 9963 9965 9969 9976 9983 9992 10002 10013 10026 10040
10213 10188 10167 10156 10141 10125 10113 10098 10080 10063 10050 10045 10038 10027 10016 10009 10001 9990 9985 9978 9971 9968 9962 9958 9954 9951 9949 9949 9951 9954 9958 9964 9971 9980 9990 10000 10014 10027
10186 10159 10139 10125 10112 10097 10085 10073 10060 10044 10032 10020 10015 10008 10000 9992 9985 9978 9970 9965 9959 9955 9951 9947 9943 9940 9939 9940 9942 9946 9951 9956 9963 9971 9981 9992 10004 10016
10160 10138 10120 10103 10088 10074 10062 10051 10041 10027 10015 10006 9998 9991 9985 9978 9972 9966 9960 9954 9950 9945 9943 9939 9935 9934 9934 9935 9938 9942 9946 9951 9957 9965 9973 9983 9994 10003
10129 10114 10099 10084 10068 10054 10043 10030 10020 10010 10000 9992 9985 9978 9972 9967 9962 9956 9951 9947 9943 9939 9936 9933 9931 9931 9932 9933 9935 9938 9944 9949 9955 9961 9969 9978 9987 9996
10102 10088 10075 10061 10048 10036 10026 10014 10005 9996 9988 9981 9974 9968 9963 9958 9953 9949 9945 9941 9937 9934 9932 9930 9929 9929 9930 9932 9933 9936 9941 9946 9951 9957 9964 9972 9982 9992
10082 10068 10055 10043 10032 10019 10010 10000 9992 9984 9977 9971 9966 9961 9955 9951 9948 9945 9941 9937 9934 9931 9928 9927 9927 9926 9927 9929 9931 9934 9938 9943 9948 9954 9960 9968 9976 9986
10067 10053 10040 10028 10017 10007 9998 9989 9982 9975 9969 9963 9959 9955 9951 9947 9944 9940 9936 9933 9930 9928 9926 9924 9925 9924 9924 9926 9928 9931 9935 9938 9943 9950 9957 9964 9972 9981
10050 10037 10026 10014 10004 9995 9988 9980 9973 9967 9962 9958 9954 9950 9947 9943 9939 9935 9932 9930 9927 9926 9924 9923 9922 9923 9924 9925 9926 9929 9933 9936 9941 9946 9952 9959 9967 9975
10036 10024 10012 10002 9993 9986 9979 9973 9967 9961 9957 9953 9950 9946 9942 9939 9936 9933 9930 9928 9925 9923 9922 9921 9921 9921 9923 9924 9926 9929 9932 9935 9939 9943 9949 9956 9964 9972
10022 10011 10002 9993 9986 9978 9972 9967 9962 9957 9953 9950 9946 9942 9939 9936 9933 9931 9929 9927 9924 9922 9921 9920 9920 9919 9921 9923 9926 9929 9932 9936 9940 9944 9949 9956 9962 9970
10011 10002 9994 9987 9980 9974 9968 9963 9958 9954 9949 9945 9942 9938 9935 9931 9929 9927 9926 9924 9922 9921 9920 9920 9920 9920 9920 9923 9926 9929 9932 9936 9941 9946 9950 9956 9963 9969
10003 9995 9988 9981 9975 9969 9964 9960 9955 9951 9946 9942 9937 9933 9929 9926 9923 9921 9920 9919 9918 9918 9917 9918 9919 9920 9920 9922 9924 9928 9932 9936 9940 9945 9950 9956 9962 9968
9997 9990 9984 9978 9971 9966 9962 9957 9952 9947 9943 9937 9932 9927 9923 9919 9916 9914 9912 9912 9912 9912 9913 9914 9915 9917 9919 9921 9923 9927 9930 9934 9939 9944 9949 9955 9960 9968